Location: Elk Horn Observatory
(36.6768°N, 80.8309°W)
Time: 19:22:13
(UTC-05:00)

ISS - Visible Passes

Search period start: 17 February 2019 00:00
Search period end: 27 February 2019 00:00
Orbit: 403 x 411 km, 51.6° (Epoch: 18 February)

Date Brightness Start Highest point End Pass type
(mag) Time Alt. Az. Time Alt. Az. Time Alt. Az.
22 Feb -1.7 05:57:35 10° SSW 06:00:23 27° SE 06:03:12 10° ENE visible
23 Feb -0.9 05:07:31 11° SSE 05:09:05 14° SE 05:10:48 10° E visible
24 Feb -3.8 05:51:42 21° SW 05:53:46 82° SE 05:57:02 10° NE visible
25 Feb -2.2 05:02:53 34° ESE 05:02:53 34° ESE 05:05:22 10° ENE visible
26 Feb -3.1 05:46:35 32° WNW 05:47:15 36° NW 05:50:19 10° NE visible
